GW0756 Weather Reports


time (UTC)temp
C
wind
direction
speed
KPH
gust
KPH
rain 1hr
cm
rain 24hr
cm
rain mn
cm
humidity
%
barometer
mb
20260505124655 8 250 0.0 1.6 0.00 0.64 0.64 91 1010.6
20260505124151 8 250 0.0 0.0 0.00 0.64 0.64 91 1010.7
20260505123647 8 250 1.6 4.8 0.00 0.64 0.64 91 1010.8
20260505123144 8 250 3.2 3.2 0.00 0.64 0.64 91 1011.1
20260505122641 8 250 0.0 0.0 0.00 0.64 0.64 91 1011.3
20260505122138 8 250 1.6 3.2 0.00 0.64 0.64 90 1010.8
20260505121634 8 250 0.0 0.0 0.00 0.64 0.64 90 1011.2
20260505121132 8 250 0.0 0.0 0.00 0.64 0.64 89 1011.0
20260505120627 8 250 4.8 4.8 0.00 0.64 0.64 89 1008.9
20260505120123 9 250 4.8 9.7 0.18 0.64 0.64 89 1010.2
20260505115618 9 250 1.6 1.6 0.18 0.64 0.64 89 1009.1
20260505115116 8 250 3.2 3.2 0.00 0.61 0.61 89 1010.0
20260505114612 8 250 0.0 0.0 0.00 0.61 0.61 90 1010.4
20260505114109 9 250 0.0 1.6 0.00 0.61 0.61 90 1010.4
20260505113605 8 250 0.0 1.6 0.00 0.61 0.61 90 1010.5
20260505113102 8 250 0.0 1.6 0.00 0.61 0.61 90 1010.0
20260505112558 8 250 0.0 0.0 0.00 0.61 0.61 90 1010.2
20260505112056 8 250 1.6 1.6 0.00 0.61 0.61 91 1010.0
20260505111550 8 250 0.0 1.6 0.00 0.61 0.61 91 1010.0
20260505111046 8 250 0.0 1.6 0.00 0.61 0.61 92 1009.7
20260505110543 8 250 0.0 0.0 0.00 0.61 0.61 92 1010.0
20260505102015 10 250 4.8 12.9 0.30 0.58 0.58 90 1009.1
20260505101514 10 250 3.2 3.2 0.13 0.56 0.56 88 1011.1
20260505101010 10 250 0.0 0.0 0.00 0.53 0.53 88 1011.1
20260505100507 10 250 1.6 3.2 0.00 0.53 0.53 88 1011.0
20260505100004 10 250 0.0 1.6 0.00 0.53 0.53 88 1010.2
20260505095500 10 250 0.0 0.0 0.00 0.53 0.53 88 1009.4
20260505094956 10 250 0.0 3.2 0.00 0.53 0.53 89 1009.1
20260505094453 10 250 0.0 1.6 0.00 0.53 0.53 89 1009.3
20260505093949 9 250 1.6 3.2 0.00 0.53 0.53 90 1009.5
20260505093446 9 250 0.0 0.0 0.00 0.53 0.53 91 1009.6
20260505092943 9 250 0.0 1.6 0.00 0.53 0.53 91 1009.7
20260505092441 9 250 0.0 0.0 0.00 0.53 0.53 91 1009.0
20260505091938 10 250 0.0 0.0 0.00 0.53 0.53 91 1009.5
20260505091435 10 250 0.0 0.0 0.00 0.53 0.53 90 1009.6
20260505090933 10 250 4.8 4.8 0.00 0.53 0.53 90 1009.6
20260505090432 10 250 3.2 3.2 0.00 0.53 0.53 90 1008.5
20260505085928 10 250 0.0 1.6 0.00 0.53 0.53 90 1008.2
20260505085426 10 250 3.2 4.8 0.00 0.53 0.53 90 1007.7
20260505084924 10 250 3.2 4.8 0.00 0.53 0.53 90 1007.4
20260505084422 10 250 3.2 4.8 0.00 0.53 0.53 90 1007.0
20260505083920 10 250 6.4 9.7 0.00 0.53 0.53 91 1007.3
20260505083417 10 250 3.2 4.8 0.00 0.53 0.53 92 1007.2
20260505082913 10 250 3.2 4.8 0.00 0.53 0.53 93 1007.3
20260505082409 10 250 1.6 1.6 0.00 0.53 0.53 93 1006.9
20260505081906 10 250 1.6 3.2 0.00 0.53 0.53 94 1007.0
20260505081403 10 250 1.6 3.2 0.00 0.53 0.53 94 1007.0
20260505080859 10 250 1.6 3.2 0.18 0.53 0.53 94 1007.3
20260505080355 10 250 9.7 16.1 0.18 0.53 0.53 94 1007.5
20260505075851 11 250 1.6 1.6 0.13 0.51 0.51 93 1007.4
20260505075348 11 250 6.4 9.7 0.48 0.51 0.51 93 1007.2
20260505074845 11 250 4.8 8.0 1.07 0.48 0.48 92 1007.0
20260505074342 11 250 4.8 8.0 1.68 0.41 0.41 91 1007.5
20260505073840 12 250 4.8 8.0 1.50 0.28 0.28 90 1008.6
20260505073338 12 250 4.8 8.0 0.97 0.15 0.15 88 1009.0
20260505072834 13 250 12.9 16.1 0.18 0.03 0.03 84 1009.6
20260505072330 15 250 8.0 12.9 0.00 0.00 0.00 75 1008.9
20260505071827 16 250 4.8 8.0 0.00 0.00 0.00 67 1008.2
20260505071323 17 250 17.7 24.1 0.00 0.00 0.00 62 1008.0
20260505070822 19 250 9.7 14.5 0.00 0.00 0.00 68 1007.0
20260505070318 20 250 4.8 8.0 0.00 0.00 0.00 73 1006.0
20260505065813 20 250 1.6 1.6 0.00 0.00 0.00 73 1005.3
20260505065310 20 250 0.0 1.6 0.00 0.00 0.00 72 1005.2
20260505064807 20 250 0.0 1.6 0.00 0.00 0.00 72 1005.1
20260505064304 20 250 1.6 1.6 0.00 0.00 0.00 72 1005.2
20260505063802 20 250 3.2 4.8 0.00 0.00 0.00 71 1005.3
20260505063258 20 250 3.2 3.2 0.00 0.00 0.00 71 1005.1
20260505062755 20 250 0.0 0.0 0.00 0.00 0.00 71 1005.0
20260505062252 20 250 1.6 1.6 0.00 0.00 0.00 71 1005.0
20260505061749 20 250 0.0 0.0 0.00 0.00 0.00 71 1005.4
20260505061247 20 250 1.6 1.6 0.00 0.00 0.00 71 1005.5
20260505060744 20 250 0.0 0.0 0.00 0.00 0.00 71 1005.3
20260505060241 20 250 3.2 4.8 0.00 0.00 0.00 71 1005.1
20260505055736 20 250 0.0 1.6 0.00 0.00 0.00 70 1005.0
20260505055233 20 250 0.0 1.6 0.00 0.00 0.00 71 1005.2
20260505054730 20 250 0.0 1.6 0.00 0.00 0.00 70 1005.1
20260505054228 20 250 4.8 4.8 0.00 0.00 0.00 70 1005.3
20260505053726 20 250 1.6 1.6 0.00 0.00 0.00 70 1005.3
20260505053222 20 250 8.0 11.3 0.00 0.00 0.00 69 1005.2
20260505052719 20 250 0.0 1.6 0.00 0.00 0.00 69 1004.8
20260505052216 20 250 0.0 1.6 0.00 0.00 0.00 70 1004.7
20260505051713 20 250 4.8 8.0 0.00 0.00 0.00 70 1004.7
20260505051211 20 250 0.0 0.0 0.00 0.00 0.00 70 1004.5
20260505050709 20 250 0.0 0.0 0.00 0.00 0.00 70 1004.6
20260505050207 20 250 0.0 0.0 0.00 0.00 0.00 70 1004.8
20260505041637 20 250 0.0 1.6 0.00 0.00 0.00 69 1005.5
20260505041134 21 250 0.0 0.0 0.00 0.00 0.00 68 1005.6
20260505040631 21 250 1.6 1.6 0.00 0.00 0.00 68 1005.8
20260505040128 21 250 4.8 4.8 0.00 0.00 0.00 69 1005.6
20260505035624 21 250 0.0 0.0 0.00 0.00 0.00 68 1005.8
20260505035120 21 250 0.0 0.0 0.00 0.00 0.00 68 1005.6
20260505034617 21 250 1.6 3.2 0.00 0.00 0.00 68 1005.7
20260505034114 21 250 0.0 1.6 0.00 0.00 0.00 68 1005.7
20260505033611 21 250 0.0 0.0 0.00 0.00 0.00 67 1005.7
20260505033110 21 250 3.2 3.2 0.00 0.00 0.00 67 1005.7
20260505032607 21 250 1.6 1.6 0.00 0.00 0.00 66 1005.7
20260505032103 21 250 1.6 3.2 0.00 0.00 0.00 66 1005.8
20260505031601 21 250 1.6 1.6 0.00 0.00 0.00 66 1005.7
20260505031057 21 250 3.2 8.0 0.00 0.00 0.00 66 1005.8
20260505030554 21 250 3.2 3.2 0.00 0.00 0.00 66 1005.8
20260505030050 22 250 3.2 3.2 0.00 0.00 0.00 65 1005.9
20260505025545 22 250 0.0 0.0 0.00 0.00 0.00 66 1005.7
20260505025045 22 250 3.2 3.2 0.00 0.00 0.00 65 1005.7
20260505024541 22 250 1.6 3.2 0.00 0.00 0.00 64 1005.5
20260505024038 22 250 3.2 4.8 0.00 0.00 0.00 65 1005.6
20260505023535 22 250 4.8 4.8 0.00 0.00 0.00 65 1005.3
20260505023033 22 250 6.4 9.7 0.00 0.00 0.00 64 1005.0
20260505022531 22 250 1.6 3.2 0.00 0.00 0.00 65 1005.0
20260505022028 22 250 3.2 4.8 0.00 0.00 0.00 64 1005.4
20260505021524 22 250 6.4 8.0 0.00 0.00 0.00 64 1005.0
20260505021021 22 250 8.0 12.9 0.00 0.00 0.00 64 1004.9
20260505020520 23 250 3.2 3.2 0.00 0.00 0.00 64 1004.8
20260505020018 23 250 6.4 8.0 0.00 0.00 0.00 64 1004.8
20260505015515 23 250 11.3 16.1 0.00 0.00 0.00 64 1004.6
20260505015012 23 250 3.2 4.8 0.00 0.00 0.00 64 1004.6
20260505014509 23 250 1.6 1.6 0.00 0.00 0.00 64 1004.4
20260505014006 23 250 4.8 8.0 0.00 0.00 0.00 64 1004.4
20260505013503 23 250 0.0 1.6 0.00 0.00 0.00 63 1004.3
20260505013000 23 250 3.2 3.2 0.00 0.00 0.00 63 1004.1
20260505012458 23 250 1.6 3.2 0.00 0.00 0.00 63 1004.1
20260505011955 23 250 3.2 3.2 0.00 0.00 0.00 63 1004.0
20260505011451 24 250 6.4 9.7 0.00 0.00 0.00 63 1003.9
20260505010948 24 250 3.2 3.2 0.00 0.00 0.00 62 1004.0
20260505010443 24 250 4.8 9.7 0.00 0.00 0.00 62 1003.5
20260505005939 24 250 3.2 4.8 0.00 0.00 0.00 62 1003.6
20260505005436 25 250 3.2 3.2 0.00 0.00 0.00 61 1003.8
20260505004934 25 250 3.2 4.8 0.00 0.00 0.00 61 1003.3
20260505004431 25 250 6.4 11.3 0.00 0.00 0.00 60 1003.4
20260505003928 25 250 4.8 4.8 0.00 0.00 0.00 60 1003.4
20260505003425 25 250 4.8 4.8 0.00 0.00 0.00 60 1003.5
20260505002921 25 250 3.2 4.8 0.00 0.00 0.00 60 1003.3
20260505002417 25 250 4.8 4.8 0.00 0.00 0.00 59 1003.6
20260505001916 25 250 4.8 8.0 0.00 0.00 0.00 59 1003.6
20260505001413 25 250 0.0 1.6 0.00 0.00 0.00 58 1003.7
20260505000910 25 250 8.0 11.3 0.00 0.00 0.00 58 1003.6
20260505000408 25 250 1.6 1.6 0.00 0.00 0.00 58 1003.6
20260504235904 25 250 6.4 8.0 0.00 0.00 0.00 58 1003.5
20260504235402 25 250 1.6 1.6 0.00 0.00 0.00 57 1003.2
20260504234857 25 250 8.0 11.3 0.00 0.00 0.00 56 1003.3
20260504234355 26 250 1.6 3.2 0.00 0.00 0.00 55 1003.6
20260504233852 26 250 1.6 3.2 0.00 0.00 0.00 56 1003.6
20260504233348 26 250 3.2 4.8 0.00 0.00 0.00 54 1003.5
20260504232844 27 250 1.6 1.6 0.00 0.00 0.00 52 1003.4
20260504232342 27 250 6.4 9.7 0.00 0.00 0.00 50 1003.3
20260504231838 27 250 4.8 4.8 0.00 0.00 0.00 51 1003.4
20260504231335 27 250 3.2 4.8 0.00 0.00 0.00 50 1003.3
20260504230831 27 250 3.2 3.2 0.00 0.00 0.00 50 1003.5
20260504230329 27 250 1.6 3.2 0.00 0.00 0.00 51 1003.4
20260504225827 26 250 1.6 4.8 0.00 0.00 0.00 53 1003.4
20260504225323 26 250 0.0 0.0 0.00 0.00 0.00 53 1003.4
20260504224821 26 250 0.0 1.6 0.00 0.00 0.00 52 1003.3
20260504224318 26 250 4.8 4.8 0.00 0.00 0.00 50 1003.3
20260504223815 27 250 4.8 4.8 0.00 0.00 0.00 49 1003.2
20260504223310 27 250 3.2 3.2 0.00 0.00 0.00 50 1003.3
20260504222807 27 250 4.8 8.0 0.00 0.00 0.00 49 1003.2
20260504222305 27 250 4.8 4.8 0.00 0.00 0.00 50 1003.3
20260504221802 27 250 12.9 16.1 0.00 0.00 0.00 49 1003.3
20260504221258 27 250 4.8 8.0 0.00 0.00 0.00 50 1003.3
20260504220755 27 250 6.4 16.1 0.00 0.00 0.00 49 1003.5
20260504220252 27 250 9.7 14.5 0.00 0.00 0.00 49 1003.4
20260504215749 27 250 3.2 3.2 0.00 0.00 0.00 49 1003.2
20260504215246 27 250 6.4 8.0 0.00 0.00 0.00 48 1003.5
20260504214742 27 250 3.2 4.8 0.00 0.00 0.00 50 1003.6
20260504214238 27 250 0.0 1.6 0.00 0.00 0.00 51 1003.6
20260504213735 26 250 0.0 1.6 0.00 0.00 0.00 50 1003.6
20260504213232 27 250 8.0 11.3 0.00 0.00 0.00 49 1003.7
20260504212729 27 250 12.9 20.9 0.00 0.00 0.00 48 1003.9
20260504212225 27 250 3.2 9.7 0.00 0.00 0.00 50 1003.9
20260504211723 27 250 9.7 20.9 0.00 0.00 0.00 49 1004.0
20260504211219 27 250 8.0 11.3 0.00 0.00 0.00 47 1004.0
20260504210717 27 250 4.8 4.8 0.00 0.00 0.00 48 1004.1
20260504210214 28 250 6.4 9.7 0.00 0.00 0.00 49 1004.2
20260504205711 27 250 4.8 12.9 0.00 0.00 0.00 50 1004.0
20260504205208 27 250 4.8 8.0 0.00 0.00 0.00 48 1004.1
20260504204706 27 250 6.4 8.0 0.00 0.00 0.00 48 1004.2
20260504204205 27 250 8.0 14.5 0.00 0.00 0.00 49 1004.0
20260504203703 27 250 4.8 9.7 0.00 0.00 0.00 48 1004.1
20260504203201 27 250 3.2 3.2 0.00 0.00 0.00 49 1004.1
20260504202700 27 250 14.5 20.9 0.00 0.00 0.00 47 1004.1
20260504202158 27 250 11.3 20.9 0.00 0.00 0.00 47 1004.2
20260504201654 27 250 6.4 9.7 0.00 0.00 0.00 48 1004.5
20260504201152 27 250 8.0 16.1 0.00 0.00 0.00 47 1004.2
20260504200649 27 250 1.6 4.8 0.00 0.00 0.00 49 1004.3
20260504200146 27 250 4.8 8.0 0.00 0.00 0.00 48 1004.3
20260504195641 26 250 8.0 17.7 0.00 0.00 0.00 47 1004.4
20260504195138 27 250 8.0 12.9 0.00 0.00 0.00 47 1004.5
20260504194635 27 250 4.8 9.7 0.00 0.00 0.00 48 1004.7
20260504194131 27 250 11.3 16.1 0.00 0.00 0.00 44 1004.7
20260504193627 27 250 9.7 12.9 0.00 0.00 0.00 46 1004.6
20260504193126 27 250 3.2 4.8 0.00 0.00 0.00 45 1004.8
20260504192623 27 250 8.0 11.3 0.00 0.00 0.00 48 1004.7
20260504192121 27 250 11.3 12.9 0.00 0.00 0.00 47 1004.6
20260504191619 27 250 8.0 9.7 0.00 0.00 0.00 47 1004.8
20260504191115 27 250 6.4 8.0 0.00 0.00 0.00 47 1004.6
20260504190612 27 250 8.0 11.3 0.00 0.00 0.00 48 1004.8
20260504190108 27 250 4.8 4.8 0.00 0.00 0.00 49 1005.1
20260504185605 26 250 1.6 3.2 0.00 0.00 0.00 47 1004.9
20260504185101 26 250 4.8 8.0 0.00 0.00 0.00 47 1004.9
20260504184557 26 250 12.9 17.7 0.00 0.00 0.00 46 1004.9
20260504184052 26 250 6.4 12.9 0.00 0.00 0.00 45 1004.9
20260504183549 26 250 8.0 9.7 0.00 0.00 0.00 48 1004.7
20260504183048 26 250 6.4 12.9 0.00 0.00 0.00 48 1005.1
20260504182544 26 250 3.2 4.8 0.00 0.00 0.00 49 1004.8
20260504182042 25 250 4.8 4.8 0.00 0.00 0.00 51 1005.0
20260504181539 26 250 4.8 4.8 0.00 0.00 0.00 51 1005.2
20260504181037 26 250 8.0 9.7 0.00 0.00 0.00 48 1005.0
20260504180536 26 250 6.4 8.0 0.00 0.00 0.00 47 1005.0
20260504180034 26 250 4.8 8.0 0.00 0.00 0.00 50 1005.0
20260504175531 26 250 8.0 9.7 0.00 0.00 0.00 50 1005.2
20260504175028 25 250 6.4 9.7 0.00 0.00 0.00 48 1005.4
20260504174526 25 250 6.4 9.7 0.00 0.00 0.00 51 1005.3
20260504174022 25 250 8.0 12.9 0.00 0.00 0.00 49 1005.3
20260504173519 25 250 11.3 16.1 0.00 0.00 0.00 49 1005.3
20260504173017 25 250 8.0 12.9 0.00 0.00 0.00 50 1005.3
20260504172513 25 250 6.4 8.0 0.00 0.00 0.00 51 1005.4
20260504172009 25 250 6.4 9.7 0.00 0.00 0.00 50 1005.4
20260504171506 24 250 12.9 16.1 0.00 0.00 0.00 49 1005.5
20260504171003 25 250 8.0 9.7 0.00 0.00 0.00 51 1005.5
20260504170459 24 250 6.4 8.0 0.00 0.00 0.00 52 1005.5
20260504160419 22 250 6.4 8.0 0.00 0.00 0.00 54 1005.6
20260504150843 20 250 8.0 9.7 0.00 0.00 0.00 58 1005.9
20260504150339 20 250 4.8 4.8 0.00 0.00 0.00 58 1006.1
20260504141310 20 250 11.3 16.1 0.00 0.00 0.00 56 1005.9
20260504140806 20 250 3.2 4.8 0.00 0.00 0.00 57 1005.9
20260504140302 20 250 4.8 4.8 0.00 0.00 0.00 56 1006.1
20260504130731 17 250 4.8 4.8 0.00 0.00 0.00 60 1006.4
20260504130226 17 250 1.6 1.6 0.00 0.00 0.00 61 1006.2